TimeEDT,TemperatureF,Dew PointF,Humidity,Sea Level PressureIn,VisibilityMPH,Wind Direction,Wind SpeedMPH,Gust SpeedMPH,PrecipitationIn,Events,Conditions,WindDirDegrees,DateUTC
12:15 AM,71.6,69.8,94,30.20,10.0,East,10.4,-,N/A,,Clear,100,2014-05-09 04:15:00
12:35 AM,71.6,71.6,100,30.19,10.0,East,9.2,-,N/A,,Clear,100,2014-05-09 04:35:00
12:55 AM,71.6,71.6,100,30.19,10.0,East,8.1,-,N/A,,Clear,100,2014-05-09 04:55:00
1:15 AM,71.6,71.6,100,30.19,10.0,ESE,8.1,-,N/A,,Clear,110,2014-05-09 05:15:00
1:35 AM,69.8,69.8,100,30.18,10.0,ESE,6.9,-,N/A,,Clear,110,2014-05-09 05:35:00
1:55 AM,69.8,69.8,100,30.18,10.0,East,8.1,-,N/A,,Clear,100,2014-05-09 05:55:00
2:15 AM,69.8,69.8,100,30.17,10.0,ESE,6.9,-,N/A,,Clear,110,2014-05-09 06:15:00
2:35 AM,69.8,69.8,100,30.16,10.0,ESE,6.9,-,N/A,,Clear,110,2014-05-09 06:35:00
2:55 AM,69.8,69.8,100,30.16,10.0,East,5.8,-,N/A,,Clear,100,2014-05-09 06:55:00
3:15 AM,69.8,69.8,100,30.16,10.0,East,5.8,-,N/A,,Clear,100,2014-05-09 07:15:00
3:35 AM,69.8,69.8,100,30.16,10.0,East,4.6,-,N/A,,Clear,100,2014-05-09 07:35:00
3:55 AM,69.8,69.8,100,30.15,10.0,East,3.5,-,N/A,,Clear,100,2014-05-09 07:55:00
4:15 AM,69.8,-9999,N/A,30.15,10.0,East,3.5,-,N/A,,Clear,100,2014-05-09 08:15:00
4:35 AM,68.0,-9999,N/A,30.16,7.0,Calm,Calm,-,N/A,,Clear,0,2014-05-09 08:35:00
4:55 AM,68.0,-9999,N/A,30.17,5.0,Calm,Calm,-,N/A,,Haze,0,2014-05-09 08:55:00
5:15 AM,68.0,-9999,N/A,30.16,5.0,Calm,Calm,-,N/A,,Haze,0,2014-05-09 09:15:00
5:35 AM,66.2,-9999,N/A,30.17,1.2,Calm,Calm,-,N/A,,Clear,0,2014-05-09 09:35:00
5:55 AM,66.2,-9999,N/A,30.17,4.0,Calm,Calm,-,N/A,,Haze,0,2014-05-09 09:55:00
6:15 AM,66.2,-9999,N/A,30.18,1.5,East,3.5,-,N/A,,Clear,90,2014-05-09 10:15:00
6:35 AM,66.2,-9999,N/A,30.18,0.2,East,4.6,-,N/A,Fog,Fog,80,2014-05-09 10:35:00
6:55 AM,66.2,-9999,N/A,30.19,3.0,East,5.8,-,N/A,,Clear,90,2014-05-09 10:55:00
7:15 AM,66.2,-9999,N/A,30.19,2.0,East,3.5,-,N/A,,Clear,100,2014-05-09 11:15:00
7:50 AM,69.8,-9999,N/A,30.20,7.0,East,3.5,-,N/A,,Clear,100,2014-05-09 11:50:00
8:47 AM,73.4,71.6,94,30.21,10.0,ESE,9.2,-,N/A,,Clear,120,2014-05-09 12:47:00
9:50 AM,78.8,66.2,65,30.21,10.0,SE,15.0,20.7,N/A,,Scattered Clouds,130,2014-05-09 13:50:00
11:50 AM,82.4,64.4,54,30.20,10.0,SE,11.5,20.7,N/A,,Partly Cloudy,140,2014-05-09 15:50:00
12:47 PM,84.2,64.4,51,30.18,10.0,SE,16.1,-,N/A,,Partly Cloudy,140,2014-05-09 16:47:00
1:47 PM,86.0,62.6,45,30.16,10.0,SE,15.0,20.7,N/A,,Partly Cloudy,140,2014-05-09 17:47:00
2:55 PM,87.8,62.6,43,30.14,10.0,ESE,11.5,20.7,N/A,,Partly Cloudy,120,2014-05-09 18:55:00
3:50 PM,89.6,60.8,38,30.11,10.0,ESE,9.2,23.0,N/A,,Partly Cloudy,110,2014-05-09 19:50:00
4:47 PM,89.6,59.0,36,30.09,10.0,SE,9.2,17.3,N/A,,Partly Cloudy,140,2014-05-09 20:47:00
5:35 PM,89.6,60.8,38,30.08,10.0,SSE,9.2,-,N/A,,Clear,150,2014-05-09 21:35:00
5:55 PM,87.8,60.8,40,30.09,10.0,SSE,9.2,-,N/A,,Clear,150,2014-05-09 21:55:00
6:15 PM,87.8,60.8,40,30.09,10.0,SE,6.9,-,N/A,,Clear,130,2014-05-09 22:15:00
6:35 PM,87.8,60.8,40,30.09,10.0,SE,10.4,-,N/A,,Partly Cloudy,140,2014-05-09 22:35:00
6:55 PM,86.0,59.0,40,30.09,10.0,SSE,8.1,-,N/A,,Clear,150,2014-05-09 22:55:00
7:15 PM,84.2,57.2,40,30.09,10.0,SSE,10.4,-,N/A,,Clear,150,2014-05-09 23:15:00
7:35 PM,82.4,57.2,42,30.09,10.0,SSE,5.8,-,N/A,,Clear,150,2014-05-09 23:35:00
7:55 PM,80.6,59.0,48,30.09,10.0,SE,6.9,-,N/A,,Clear,130,2014-05-09 23:55:00
8:15 PM,80.6,60.8,51,30.10,10.0,SE,4.6,-,N/A,,Clear,140,2014-05-10 00:15:00
8:35 PM,78.8,60.8,54,30.10,10.0,ESE,4.6,-,N/A,,Clear,110,2014-05-10 00:35:00
8:55 PM,78.8,60.8,54,30.11,10.0,East,8.1,-,N/A,,Clear,90,2014-05-10 00:55:00
9:15 PM,75.2,62.6,65,30.11,10.0,East,6.9,-,N/A,,Clear,90,2014-05-10 01:15:00
9:35 PM,77.0,64.4,65,30.12,10.0,East,9.2,-,N/A,,Clear,90,2014-05-10 01:35:00
9:55 PM,75.2,64.4,69,30.13,10.0,East,6.9,-,N/A,,Clear,100,2014-05-10 01:55:00
10:15 PM,75.2,64.4,69,30.13,10.0,East,9.2,-,N/A,,Clear,100,2014-05-10 02:15:00
10:35 PM,73.4,64.4,73,30.13,10.0,East,9.2,-,N/A,,Clear,100,2014-05-10 02:35:00
11:15 PM,73.4,62.6,69,30.14,10.0,ESE,8.1,-,N/A,,Clear,110,2014-05-10 03:15:00
11:35 PM,71.6,62.6,73,30.14,10.0,ESE,8.1,-,N/A,,Clear,110,2014-05-10 03:35:00
11:55 PM,71.6,64.4,78,30.14,10.0,ESE,8.1,-,N/A,,Clear,110,2014-05-10 03:55:00